Tracking 33200 objects as of 17-Feb-2026
HD Live streaming from Space Station
objects crossing your sky now

NSAT 110

Track NSAT 110 now!
NSAT 110 is classified as:


NORAD ID: 26559
Int'l Code: 2000-060A
Perigee: 36,088.7 km
Apogee: 36,114.7 km
Inclination: 6.5 °
Period: 1,451.9 minutes
Semi major axis: 42472 km
RCS: 12.5892 m2 (large)
Launch date: October 6, 2000
Source: Japan (JPN)
Launch site: FRENCH GUIANA (FRGUI)

24 Ku-band; voice and video communications to Japan.
Your satellite tracking list
Your tracking list is empty




NASA's NSSDC Master Catalog

Two Line Element Set (TLE):
1 26559U 00060A   26048.32285730 -.00000169  00000-0  00000-0 0  9990
2 26559   6.4893  71.6270 0003052 295.7706 253.5252  0.99183247 92635
Source of the keplerian elements: AFSPC